McCall, ID

12:39 AM MDT on May 30, 2017 (GMT -0600)
McCall

Weather History for KMYL - April, 2014

Change the Weather History Date:

Friday, April 11, 2014

  Actual Average Record
Temperature  
Mean Temperature 43 °F 35 °F  
Max Temperature 60 °F 47 °F 70 °F (1934)
Min Temperature 26 °F 24 °F 9 °F (1999)
Degree Days  
Heating Degree Days 22 30  
Month to date heating degree days 289 340  
Since 1 July heating degree days 7295 8129  
Cooling Degree Days 0 0  
Month to date cooling degree days 0 0  
Year to date cooling degree days 0 0  
Moisture  
Dew Point 25 °F    
Average Humidity 55    
Maximum Humidity 81    
Minimum Humidity 28    
Precipitation  
Precipitation 0.00 in 0.06 in 0.52 in (1982)
Month to date precipitation 0.39 0.78  
Year to date precipitation 11.34 6.45  
Sea Level Pressure  
Sea Level Pressure 29.97 in    
Wind  
Wind Speed 3 mph (West)    
Max Wind Speed 14 mph    
Max Gust Speed 20 mph    
Visibility 10 miles    
Events      
T = Trace of Precipitation, MM = Missing Value Source: NWS Daily Summary

Daily Weather History Graph

Daily Weather History Graph

Search for Another Location

Airport or City:

Trip Planner

Search our weather history database for the weather conditions in past years. The results will help you decide how hot, cold, wet, or windy it might be!

Date:

Astronomy

Apr. 11, 2014 Rise Set
Actual Time 7:06 AM MDT 8:24 PM MDT
Civil Twilight 6:36 AM MDT 8:55 PM MDT
Nautical Twilight 6:00 AM MDT 9:31 PM MDT
Astronomical Twilight 5:21 AM MDT 10:10 PM MDT
Moon 5:01 PM MDT (4/11) 5:13 AM MDT (4/11)
Length of Visible Light 14h 18m
Length of Day
13h 18m
Waxing Gibbous, 87% of the Moon is Illuminated
Apr 11
Waxing Gibbous
Apr 15
Full
Apr 22
Last Quarter
Apr 29
New
May 6
First Quarter

Hourly Weather History & Observations

Time (MDT) Temp. Windchill Dew Point Humidity Pressure Visibility Wind Dir Wind Speed Gust Speed Precip Events Conditions
12:51 AM 33.1 °F - 25.0 °F 72% 30.05 in 10.0 mi Calm Calm - N/A   Clear
1:51 AM 32.0 °F 28.7 °F 24.1 °F 73% 30.05 in 10.0 mi NE 3.5 mph - N/A   Clear
2:51 AM 30.0 °F - 24.1 °F 79% 30.04 in 10.0 mi Calm Calm - N/A   Clear
3:51 AM 30.0 °F - 23.0 °F 75% 30.03 in 10.0 mi Calm Calm - N/A   Clear
4:51 AM 28.0 °F - 23.0 °F 81% 30.04 in 10.0 mi Calm Calm - N/A   Clear
5:51 AM 28.0 °F - 21.9 °F 78% 30.04 in 10.0 mi Calm Calm - N/A   Clear
6:51 AM 27.0 °F - 21.9 °F 81% 30.04 in 10.0 mi Calm Calm - N/A   Clear
7:51 AM 28.0 °F - 23.0 °F 81% 30.04 in 10.0 mi Calm Calm - N/A   Clear
8:51 AM 34.0 °F - 25.0 °F 70% 30.04 in 10.0 mi Calm Calm - N/A   Clear
9:51 AM 39.0 °F 36.8 °F 26.1 °F 60% 30.03 in 10.0 mi South 3.5 mph - N/A   Clear
10:51 AM 44.1 °F - 23.0 °F 43% 30.03 in 10.0 mi Calm Calm - N/A   Clear
11:51 AM 50.0 °F - 24.1 °F 36% 30.00 in 10.0 mi Calm Calm - N/A   Clear
12:51 PM 52.0 °F - 21.0 °F 30% 29.98 in 10.0 mi Calm Calm - N/A   Clear
1:51 PM 55.9 °F - 24.1 °F 29% 29.96 in 10.0 mi North - - N/A   Clear
2:51 PM 57.0 °F - 25.0 °F 29% 29.95 in 10.0 mi Variable 3.5 mph - N/A   Partly Cloudy
3:51 PM 57.9 °F - 25.0 °F 28% 29.93 in 10.0 mi West 10.4 mph - N/A   Clear
4:51 PM 57.9 °F - 25.0 °F 28% 29.92 in 10.0 mi Variable 5.8 mph - N/A   Clear
5:51 PM 59.0 °F - 26.1 °F 28% 29.89 in 10.0 mi West 9.2 mph - N/A   Clear
6:51 PM 57.0 °F - 26.1 °F 30% 29.91 in 10.0 mi West 9.2 mph - N/A   Clear
7:51 PM 55.0 °F - 25.0 °F 31% 29.89 in 10.0 mi SW 3.5 mph - N/A   Clear
8:51 PM 46.0 °F 43.1 °F 28.9 °F 51% 29.89 in 10.0 mi ENE 5.8 mph - N/A   Clear
9:51 PM 42.1 °F - 28.9 °F 60% 29.90 in 10.0 mi Calm Calm - N/A   Clear
10:51 PM 39.0 °F 36.8 °F 28.9 °F 67% 29.88 in 10.0 mi Variable 3.5 mph - N/A   Clear
11:51 PM 37.0 °F 32.4 °F 28.0 °F 70% 29.86 in 10.0 mi NW 5.8 mph - N/A   Clear